Regional Weather Roundup
Issued by NWS Newport/Morehead, NC

Current Version | Previous Version | Graphics & Text | Print | Product List | Glossary Off
Versions: 1 2 3 4 5 6 7 8 9 10 11 12 13 14 15 16 17 18 19 20 21 22 23 24 25 26 27 28 29 30 31 32 33 34 35 36 37 38 39 40 41 42 43 44 45 46 47 48 49 50
661 ASUS42 KMHX 080613 RWRMHX WEATHER ROUNDUP FOR EASTERN NORTH CAROLINA NATIONAL WEATHER SERVICE NEWPORT/MOREHEAD CITY NC 100 AM EST MON FEB 08 2016 NOTE: "FAIR" INDICATES FEW OR NO CLOUDS BELOW 12,000 FEET WITH NO SIGNIFICANT WEATHER AND/OR OBSTRUCTIONS TO VISIBILITY NCZ015>017-031-032-045>047-102-103-080700- NORTH COAST CITY SKY/WX TMP DP RH WIND PRES REMARKS EDENTON CLOUDY 40 32 72 N21 29.65S ELIZABETH CITY CLOUDY 40 34 79 N25 29.61F KITTY HAWK LGT RAIN 40 38 93 N16G29 29.53S MANTEO CLOUDY 40 39 93 N20G32 29.55S $$ NCZ045>047-081-094-103-104-080700- CENTRAL COAST CITY SKY/WX TMP DP RH WIND PRES REMARKS FRISCO RAIN 43 41 93 N14G31 29.50R SWANQUARTER NOT AVBL $$ NCZ095-097-098-100-101-080700- SOUTHERN COAST CITY SKY/WX TMP DP RH WIND PRES REMARKS BEAUFORT CLOUDY 40 32 73 N25G35 29.63R CEDAR ISLAND NOT AVBL JACKSONVILLE CLOUDY 40 26 57 NW16G25 29.72R PINEY ISLAND NOT AVBL WILMINGTON PTCLDY 41 27 57 NW16G23 29.77R $$ NCZ011>013-027>030-043-044-078>080-089-090>093-098-080700- COASTAL PLAIN CITY SKY/WX TMP DP RH WIND PRES REMARKS AHOSKIE CLOUDY 39 22 51 N7 29.73S CLINTON PTCLDY 40 25 55 W7 29.80S ELIZABETHTOWN MOCLDY 40 26 56 NW7 29.80F GOLDSBORO PTCLDY 41 23 48 NW12G21 29.75S GREENVILLE CLOUDY 41 27 56 NW9G16 29.76S HAVELOCK CLOUDY 40 29 64 NW25G33 29.68R KENANSVILLE N/A 40 24 53 NW12 29.78R KINSTON MOCLDY 40 25 56 NW12G20 29.75S NEW BERN CLOUDY 40 27 59 NW16 29.70R RICHLANDS CLOUDY 39 21 48 W8G16 29.74S ROCKY MOUNT CLOUDY 40 22 48 N16G24 29.77S WASHINGTON CLOUDY 39 27 60 NW9 29.70R WHITEVILLE CLOUDY 41 26 56 CALM 29.82S $$ AMZ130-135-150-152-154-156-158-170-250-252-270-ANZ085-086-088-633-658-670-080700- MARINE OBSERVATIONS STATION/POSITION TIME TEMP WIND PRES WAVE SWELL AIR SEA DIR/SP/G HT/PER HT/PER (UTC) (F) (DEG/KT/KT) (MB) (FT/S) (FT/S) CHESAPEAKE LIGHT 0600 42 360/ 33/ 37 1001.9 64 E VA BEACH 0550 49 53 10/ 37/ 47 995.9 17/10 13/10 DUCK 0500 42 53 350/ 32/ 40 999.4 2 E DUCK 0511 45 N/A 14/11 7/11 OREGON INLET 0500 43 45 340/ 24/ 36 998.8 13E OREGON INLT 0600 47 N/A 21/11 15/11 HATTERAS CG 0500 44 47 340/ 39/ 46 998.1 DIAMOND BUOY 0550 48 70 340/ 39/ 47 996.1 19/12 15/12 CAPE LOOKOUT NOT AVBL BEAUFORT LAB 0500 40 45 350/ 19/ 30 1002.0 30 SE NEW RVR IN 0508 46 59 1002.0 30 SE NEW RVR IN 0525 59 N/A 14/12 8/12 27 SE WRIGHTSVLE 0508 43 59 360/ 27/ 39 1003.0 5 SE WRIGHTSVLE 0508 44 52 330/ 25/ 35 1006.6 225 S CAPE HAT 0550 57 69 310/ 41/ 52 N/A 27/14 15/14 41 SE CHARLESTON 0550 52 66 320/ 21/ 27 1011.9 9/ 6 5/10 $$

USA.gov is the U.S. government's official web portal to all federal, state and local government web resources and services.